Tracking 27079 objects as of 23-Mar-2023
HD Live streaming from Space Station
objects crossing your sky now

USA 28

Track USA 28 now!
USA 28 is classified as:


NORAD ID: 18583
Int'l Code: 1987-097A
Perigee: 36,236.9 km
Apogee: 36,425.1 km
Inclination: 13.1 °
Period: 1,463.6 minutes
Semi major axis: 42701 km
RCS: Unknown
Launch date: November 29, 1987
Source: United States (US)
Launch site: AIR FORCE EASTERN TEST RANGE (AFETR)
Your satellite tracking list
Your tracking list is empty




NASA's NSSDC Master Catalog

Two Line Element Set (TLE):
1 18583U 87097A   23081.31242032 -.00000035  00000-0  00000-0 0  9996
2 18583  13.1489 345.5027 0022033 247.3818 323.6456  0.98385511 13083
Source of the keplerian elements: McCants